Weather History for Taylorville, IL

Change the Weather History Date:

Saturday, July 20, 2013

  Actual Average (KSPI) Record (KSPI)
Temperature  
Mean Temperature 79 °F 76 °F  
Max Temperature 89 °F 86 °F 106 °F (1934)
Min Temperature 68 °F 66 °F 52 °F (2009)
Degree Days  
Heating Degree Days 0 0  
Month to date heating degree days 0  
Since 1 June heating degree days 15  
Since 1 July heating degree days 0  
Cooling Degree Days 14 11  
Month to date cooling degree days 220  
Year to date cooling degree days 564  
Since 1 June cooling degree days 460  
Growing Degree Days 29 (Base 50)    
Moisture  
Dew Point 70 °F    
Average Humidity 75    
Maximum Humidity 100    
Minimum Humidity 48    
Precipitation  
Precipitation 0.00 in 0.13 in 1.92 in (1935)
Month to date precipitation 2.60  
Year to date precipitation 21.07  
Snow  
Snow 0.00 in 0.00 in 0.00 in ()
Month to date snowfall 0.0  
Since 1 June snowfall 0.0  
Since 1 July snowfall 0.0  
Snow Depth -    
Sea Level Pressure  
Sea Level Pressure 29.88 in    
Wind  
Wind Speed 6 mph (West)    
Max Wind Speed 13 mph    
Max Gust Speed 17 mph    
Visibility 10 miles    
Events      
T = Trace of Precipitation, MM = Missing Value Source: NWS Daily Summary

Daily Weather History Graph

Daily Weather History Graph

Search for Another Location

Airport:

Trip Planner

Search our weather history database for the weather conditions in past years. The results will help you decide how hot, cold, wet, or windy it might be!

Date:

Astronomy

Jul. 20, 2013 Rise Set
Actual Time 5:46 AM CDT 8:20 PM CDT
Civil Twilight 5:15 AM CDT 8:51 PM CDT
Nautical Twilight 4:36 AM CDT 9:29 PM CDT
Astronomical Twilight 3:53 AM CDT 10:13 PM CDT
Moon 6:23 PM CDT (7/20) 3:26 AM CDT (7/20)
Length of Visible Light 15h 35m
Length of Day
14h 33m
Waxing Gibbous, 94% of the Moon is Illuminated
Jul 20
Waxing Gibbous
Jul 22
Full
Jul 29
Last Quarter
Aug 6
New
Aug 14
First Quarter

Hourly Weather History & Observations

Time (CDT) Temp. Heat Index Dew Point Humidity Pressure Visibility Wind Dir Wind Speed Gust Speed Precip Events Conditions
12:15 AM 77.0 °F - 71.6 °F 83% 29.89 in 10.0 mi SSW 6.9 mph - N/A   Clear
12:35 AM 77.0 °F - 71.6 °F 83% 29.89 in 10.0 mi SSW 6.9 mph - N/A   Clear
12:55 AM 77.0 °F - 71.6 °F 83% 29.89 in 10.0 mi SSW 6.9 mph - N/A   Clear
1:15 AM 75.2 °F - 71.6 °F 89% 29.89 in 10.0 mi SSW 6.9 mph - N/A   Clear
1:35 AM 75.2 °F - 71.6 °F 89% 29.88 in 10.0 mi SSW 6.9 mph - N/A   Clear
1:55 AM 75.2 °F - 71.6 °F 89% 29.88 in 10.0 mi SSW 6.9 mph - N/A   Clear
2:15 AM 73.4 °F - 71.6 °F 94% 29.88 in 10.0 mi SSW 4.6 mph - N/A   Clear
2:35 AM 73.4 °F - 71.6 °F 94% 29.87 in 10.0 mi SSW 5.8 mph - N/A   Clear
2:55 AM 73.4 °F - 69.8 °F 88% 29.87 in 10.0 mi SSW 5.8 mph - N/A   Clear
3:15 AM 73.4 °F - 69.8 °F 88% 29.86 in 10.0 mi SSW 5.8 mph - N/A   Clear
3:35 AM 71.6 °F - 69.8 °F 94% 29.86 in 10.0 mi SSW 5.8 mph - N/A   Clear
3:55 AM 71.6 °F - 69.8 °F 94% 29.86 in 10.0 mi SSW 5.8 mph - N/A   Clear
4:15 AM 73.4 °F - 69.8 °F 88% 29.86 in 10.0 mi SSW 4.6 mph - N/A   Clear
4:35 AM 71.6 °F - 69.8 °F 94% 29.86 in 10.0 mi SSW 4.6 mph - N/A   Clear
4:55 AM 73.4 °F - 69.8 °F 88% 29.86 in 10.0 mi SSW 4.6 mph - N/A   Scattered Clouds
5:15 AM 71.6 °F - 69.8 °F 94% 29.86 in 10.0 mi SSW 5.8 mph - N/A   Scattered Clouds
5:35 AM 71.6 °F - 69.8 °F 94% 29.88 in 10.0 mi NNW 9.2 mph - N/A   Scattered Clouds
5:55 AM 71.6 °F - 69.8 °F 94% 29.88 in 7.0 mi West 3.5 mph - N/A   Clear
6:15 AM 71.6 °F - 69.8 °F 94% 29.87 in 7.0 mi WSW 4.6 mph - N/A   Clear
6:35 AM 73.4 °F - 69.8 °F 88% 29.88 in 10.0 mi SW 5.8 mph - N/A   Scattered Clouds
6:55 AM 73.4 °F - 69.8 °F 88% 29.87 in 10.0 mi SW 4.6 mph - N/A   Scattered Clouds
7:15 AM 73.4 °F - 69.8 °F 88% 29.87 in 10.0 mi SW 6.9 mph - N/A   Clear
7:35 AM 75.2 °F - 69.8 °F 83% 29.87 in 10.0 mi WSW 4.6 mph - N/A   Scattered Clouds
7:55 AM 75.2 °F - 69.8 °F 83% 29.87 in 10.0 mi SW 5.8 mph - N/A   Mostly Cloudy
8:15 AM 78.8 °F - 69.8 °F 74% 29.87 in 10.0 mi SSW 4.6 mph - N/A   Scattered Clouds
8:35 AM 78.8 °F - 69.8 °F 74% 29.88 in 10.0 mi SW 8.1 mph - N/A   Scattered Clouds
8:55 AM 80.6 °F 83.9 °F 69.8 °F 70% 29.87 in 10.0 mi SW 3.5 mph - N/A   Scattered Clouds
9:15 AM 80.6 °F 83.9 °F 69.8 °F 70% 29.87 in 10.0 mi West 6.9 mph - N/A   Clear
9:35 AM 82.4 °F 86.3 °F 69.8 °F 66% 29.87 in 10.0 mi WSW 5.8 mph - N/A   Scattered Clouds
9:55 AM 82.4 °F 86.3 °F 69.8 °F 66% 29.87 in 10.0 mi WNW 5.8 mph - N/A   Clear
10:15 AM 84.2 °F 88.4 °F 69.8 °F 62% 29.87 in 10.0 mi WNW 3.5 mph - N/A   Clear
10:35 AM 84.2 °F 89.6 °F 71.6 °F 66% 29.88 in 10.0 mi WSW 4.6 mph - N/A   Clear
10:55 AM 86.0 °F 91.8 °F 71.6 °F 62% 29.88 in 10.0 mi WNW 3.5 mph - N/A   Clear
11:15 AM 87.8 °F 93.8 °F 71.6 °F 58% 29.88 in 10.0 mi West 4.6 mph - N/A   Clear
11:35 AM 87.8 °F 93.8 °F 71.6 °F 58% 29.88 in 10.0 mi Calm Calm - N/A   Clear
11:55 AM 86.0 °F 91.8 °F 71.6 °F 62% 29.89 in 10.0 mi North 4.6 mph - N/A   Scattered Clouds
12:15 PM 87.8 °F 93.8 °F 71.6 °F 58% 29.88 in 10.0 mi Calm Calm - N/A   Scattered Clouds
12:35 PM 89.6 °F 98.2 °F 73.4 °F 59% 29.88 in 10.0 mi NNW 3.5 mph - N/A   Clear
12:55 PM 84.2 °F 89.6 °F 71.6 °F 66% 29.88 in 10.0 mi North 6.9 mph - N/A   Clear
1:15 PM 87.8 °F 95.6 °F 73.4 °F 62% 29.87 in 10.0 mi NW 3.5 mph - N/A   Clear
1:35 PM 87.8 °F 95.6 °F 73.4 °F 62% 29.87 in 10.0 mi NNE 6.9 mph - N/A   Clear
1:55 PM 87.8 °F 95.6 °F 73.4 °F 62% 29.87 in 10.0 mi North 6.9 mph - N/A   Clear
2:15 PM 87.8 °F 93.8 °F 71.6 °F 58% 29.86 in 10.0 mi North 8.1 mph - N/A   Clear
2:35 PM 89.6 °F 96.2 °F 71.6 °F 55% 29.86 in 10.0 mi North 10.4 mph - N/A   Clear
2:55 PM 89.6 °F 94.7 °F 69.8 °F 52% 29.85 in 10.0 mi North 10.4 mph 16.1 mph N/A   Clear
3:15 PM 87.8 °F 92.6 °F 69.8 °F 55% 29.84 in 10.0 mi North 6.9 mph 17.3 mph N/A   Clear
3:35 PM 87.8 °F 91.4 °F 68.0 °F 52% 29.84 in 10.0 mi North 8.1 mph 17.3 mph N/A   Clear
3:55 PM 87.8 °F 91.4 °F 68.0 °F 52% 29.84 in 10.0 mi NNE 12.7 mph 17.3 mph N/A   Clear
4:15 PM 86.0 °F 89.4 °F 68.0 °F 55% 29.83 in 10.0 mi North 10.4 mph 17.3 mph N/A   Clear
4:35 PM 84.2 °F 86.6 °F 66.2 °F 55% 29.83 in 10.0 mi North 12.7 mph - N/A   Scattered Clouds
4:55 PM 84.2 °F 87.3 °F 68.0 °F 58% 29.85 in 10.0 mi NNE 8.1 mph - N/A   Scattered Clouds
5:15 PM 84.2 °F 86.6 °F 66.2 °F 55% 29.86 in 10.0 mi North 9.2 mph - N/A   Clear
5:35 PM 84.2 °F 87.3 °F 68.0 °F 58% 29.86 in 10.0 mi North 9.2 mph - N/A   Clear
5:55 PM 82.4 °F 85.4 °F 68.0 °F 62% 29.86 in 10.0 mi North 5.8 mph - N/A   Clear
6:15 PM 84.2 °F 87.3 °F 68.0 °F 58% 29.86 in 10.0 mi North 6.9 mph - N/A   Clear
6:35 PM 84.2 °F 85.6 °F 64.4 °F 51% 29.88 in 10.0 mi North 9.2 mph - N/A   Clear
6:55 PM 84.2 °F 85.0 °F 62.6 °F 48% 29.90 in 10.0 mi NNE 5.8 mph - N/A   Clear
7:15 PM 80.6 °F 82.3 °F 64.4 °F 58% 29.90 in 10.0 mi North 3.5 mph - N/A   Clear
7:35 PM 80.6 °F 82.3 °F 64.4 °F 58% 29.90 in 10.0 mi North 3.5 mph - N/A   Clear
7:55 PM 80.6 °F 82.3 °F 64.4 °F 58% 29.90 in 10.0 mi NE 4.6 mph - N/A   Clear
8:15 PM 78.8 °F - 69.8 °F 74% 29.91 in 10.0 mi SSE 6.9 mph - N/A   Clear
8:35 PM 75.2 °F - 69.8 °F 83% 29.92 in 10.0 mi South 5.8 mph - N/A   Clear
8:55 PM 73.4 °F - 69.8 °F 88% 29.92 in 10.0 mi SSW 8.1 mph - N/A   Clear
9:15 PM 71.6 °F - 69.8 °F 94% 29.92 in 10.0 mi SW 3.5 mph - N/A   Clear
9:35 PM 71.6 °F - 69.8 °F 94% 29.92 in 10.0 mi South 3.5 mph - N/A   Clear
9:55 PM 71.6 °F - 69.8 °F 94% 29.91 in 10.0 mi SSE 4.6 mph - N/A   Clear
10:15 PM 69.8 °F - 69.8 °F 100% 29.92 in 10.0 mi Calm Calm - N/A   Clear
10:35 PM 69.8 °F - 69.8 °F 100% 29.91 in 10.0 mi Calm Calm - N/A   Clear
10:55 PM 69.8 °F - 68.0 °F 94% 29.92 in 10.0 mi SSE 3.5 mph - N/A   Clear
11:15 PM 69.8 °F - 68.0 °F 94% 29.92 in 10.0 mi Calm Calm - N/A   Clear
11:35 PM 69.8 °F - 66.2 °F 88% 29.93 in 10.0 mi Calm Calm - N/A   Clear
11:55 PM 68.0 °F - 68.0 °F 100% 29.93 in 10.0 mi Calm Calm - N/A   Clear